RH
95 94 90 99 93 93 82 92 87 98 90 92 83 80 76 61 72 72 86 69 66 51 34 34 36 35 30 38 32 33 41 41 38 38 36 35 31 31 28 28 32 33 36 34 34
88 93 93 91 96 93 90 94 96 85 94 80 80 80 59 80 69 82 88 86 69 38 33 37 40 35 42 36 39 39 43 38 44 41 38 36 33 35 27 28 33 31 29 32 32
88 85 91 91 94 88 88 85 95 96 96 85 94 60 78 60 57 81 77 83 80 42 36 33 32 35 38 38 40 45 42 50 45 40 36 34 32 33 29 28 30 32 27 27 27
89 90 91 93 90 96 94 92 88 89 86 94 69 75 62 59 55 62 65 48 47 37 33 29 33 39 42 39 37 48 48 44 42 36 28 32 31 26 30 27 32 33 33 32 34
90 90 90 89 76 73 89 96 90 92 96 86 80 69 53 64 63 51 43 39 35 32 30 32 34 38 40 39 38 48 45 43 42 42 38 31 34 33 29 30 30 30 32 35 32
94 67 89 80 77 73 96 97 88 89 78 68 61 48 48 70 51 42 37 34 31 28 36 32 32 36 43 46 42 42 45 42 39 39 36 29 31 28 31 30 28 30 31 30 28
99 69 72 92 98 99 99 100 96 78 62 52 48 42 49 57 41 37 33 32 30 27 38 37 33 34 42 45 42 37 41 40 40 38 35 35 20 26 29 30 28 27 28 30 33
98 98 95 98 98 96 100 98 84 64 57 46 42 42 57 40 38 34 34 33 31 28 28 32 32 48 44 44 44 39 35 29 39 47 29 26 27 24 33 34 32 32 32 38 39
85 86 95 88 89 91 88 89 77 80 65 55 43 47 56 37 40 39 35 35 32 30 32 30 37 54 47 54 55 53 44 40 41 54 47 30 29 25 33 40 39 36 39 45 54
69 73 76 77 74 73 70 74 72 63 58 51 48 53 48 55 45 40 35 31 36 32 35 43 51 51 57 68 51 53 48 37 36 52 55 45 40 38 39 42 42 47 50 61 60
61 61 64 67 67 66 58 58 73 70 60 69 59 59 53 45 40 41 39 33 36 47 56 55 61 69 53 45 48 43 41 40 49 59 55 48 54 40 40 44 49 59 64 62 63
71 58 54 64 61 61 53 92 96 70 62 57 55 56 51 48 50 47 36 43 48 58 47 62 69 52 56 56 51 43 44 56 49 60 55 60 50 36 42 48 55 66 65 63 65
60 56 49 53 46 54 74 85 78 73 66 54 58 59 59 44 53 56 45 46 54 63 61 67 54 50 50 59 60 74 59 61 54 66 62 65 45 27 39 63 72 71 68 68 70
62 58 44 41 43 60 74 71 76 70 84 70 59 53 48 53 47 46 46 47 57 62 62 65 54 54 59 63 60 64 65 66 73 69 53 58 56 42 39 49 65 66 65 65 71
55 56 51 39 47 55 60 60 71 59 88 60 63 43 47 49 43 46 46 50 62 66 50 65 62 62 74 72 59 74 71 76 79 89 80 65 74 54 56 50 52 56 62 63 69
49 49 50 43 49 56 59 66 46 74 94 74 62 64 54 62 60 54 51 49 51 56 62 69 58 62 68 72 71 72 69 71 77 84 79 70 78 72 55 47 58 57 61 66 70
44 44 48 48 55 56 64 49 77 93 66 72 70 63 68 69 63 65 69 75 70 60 74 63 71 64 60 70 68 67 74 73 63 77 64 88 97 71 54 54 64 59 62 66 72
37 39 46 50 61 63 48 69 86 75 79 62 63 60 76 66 65 63 60 81 70 69 90 68 60 64 60 64 75 84 73 76 47 71 78 86 91 63 54 56 66 63 72 74 72
43 42 45 54 59 60 66 92 84 80 68 68 55 74 66 61 67 66 71 74 72 62 64 76 81 68 82 71 67 79 89 68 89 83 90 81 68 52 56 65 64 68 70 68 71
48 48 40 50 49 48 82 86 76 64 62 48 63 62 63 70 67 70 68 64 72 64 58 70 89 77 85 75 78 66 69 86 92 90 86 76 83 76 56 58 54 59 64 66 70
48 51 42 50 46 76 92 82 70 59 52 50 60 69 62 66 68 74 67 64 64 70 65 72 72 85 87 88 88 82 78 73 75 80 90 93 76 71 67 58 62 64 64 68 71
49 64 46 46 73 91 85 63 53 58 52 52 51 58 61 68 70 86 72 64 63 67 73 69 80 97 83 70 70 73 77 80 88 85 88 79 84 54 60 61 64 70 69 70 74
75 73 42 35 70 88 65 63 56 56 57 56 54 50 52 66 64 66 71 55 65 70 81 79 87 90 74 80 78 88 83 74 75 82 79 94 81 53 67 71 71 74 69 66 71
64 64 61 82 79 69 63 62 66 56 58 56 54 51 55 59 59 68 78 60 67 62 64 66 86 78 75 59 80 96 90 77 74 94 84 85 75 54 51 56 60 65 66 69 70
77 80 74 62 68 63 56 60 64 65 56 56 57 55 56 62 64 66 70 64 66 62 81 76 86 89 88 85 82 81 81 88 87 74 85 66 70 54 52 58 59 60 63 64 64
62 61 75 73 59 50 58 64 57 57 62 60 58 58 61 61 60 60 68 68 71 78 84 79 87 81 89 78 86 90 81 84 82 79 74 71 75 52 48 50 62 63 66 65 64
74 70 56 74 63 52 50 55 56 54 56 51 59 66 68 64 60 53 62 66 62 81 87 88 91 81 86 76 79 74 65 71 77 75 74 86 63 52 55 55 63 62 64 59 61
Wind_Speed
25 26 24 23 16 15 13 13 12 10 19 22 20 18 16 16 15 14 12 5 4 1 8 10 10 8 9 4 5 2 4 3 5 6 5 1 2 2 2 3 2 3 2 1 5
22 21 24 24 23 19 15 9 8 6 20 20 21 19 18 20 22 18 9 7 6 3 9 11 5 6 5 4 4 5 3 3 1 2 3 2 3 1 2 2 3 3 4 4 4
18 19 21 21 20 18 14 10 6 10 11 20 20 21 23 11 6 3 7 8 6 3 7 9 11 6 5 4 5 3 3 4 2 1 1 2 3 0 4 1 2 3 3 3 5
17 17 17 17 17 16 17 20 15 6 3 10 22 23 5 1 4 5 8 3 2 7 7 8 5 5 5 5 3 6 4 2 1 4 2 2 1 3 2 1 4 4 3 3 6
18 17 18 16 15 12 13 17 20 25 30 27 20 8 6 6 4 10 5 6 7 8 6 4 5 5 6 5 3 6 2 5 3 6 5 1 3 1 2 3 4 2 4 4 4
19 16 17 15 14 14 17 19 21 28 27 16 11 11 7 11 11 8 7 8 10 9 6 6 5 4 7 4 5 3 6 3 6 5 5 4 2 2 0 4 3 5 4 2 4
31 18 20 17 27 30 27 27 23 32 23 19 20 28 22 7 11 12 14 11 13 14 6 7 6 6 5 6 4 4 6 4 8 7 4 3 2 3 2 2 3 3 4 7 8
34 36 29 38 31 30 28 27 28 27 20 18 18 18 6 12 15 15 15 18 21 22 23 17 16 9 5 4 6 5 5 3 4 9 4 2 5 2 2 4 5 5 7 7 9
27 31 30 34 34 30 30 27 25 22 13 12 16 8 4 9 11 15 12 7 16 17 15 11 9 5 5 5 4 6 4 2 1 4 3 3 4 2 2 5 7 9 8 7 5
27 25 24 25 26 27 31 29 23 14 14 15 14 7 7 5 7 9 9 9 10 4 6 9 6 5 4 5 4 5 5 3 2 4 5 4 9 7 5 5 7 7 5 2 4
31 24 19 15 12 8 10 6 7 6 23 7 2 5 2 5 11 16 9 5 6 9 5 6 10 4 2 2 4 7 5 4 1 1 2 2 7 15 7 5 4 2 2 3 5
23 24 24 24 16 8 11 7 2 2 11 10 5 5 5 4 8 19 13 6 6 5 2 7 5 1 4 5 7 5 5 2 3 1 1 4 14 15 6 4 3 4 3 4 6
16 20 16 17 16 21 22 11 7 6 6 7 4 5 4 9 5 9 7 3 7 8 7 7 1 1 3 5 6 5 5 2 0 4 2 6 7 5 0 2 3 4 4 4 6
13 14 18 5 5 8 6 7 5 3 5 12 9 6 6 2 6 4 6 3 6 4 4 7 3 3 4 5 2 3 2 3 3 4 2 5 5 6 2 4 4 6 6 5 6
13 11 13 13 2 3 5 6 2 3 6 8 8 6 7 7 1 9 10 7 5 3 2 1 3 5 7 3 2 3 3 3 2 4 2 3 1 7 4 5 5 7 7 6 6
11 12 11 7 4 7 7 2 3 5 2 6 4 6 4 7 4 5 6 8 3 6 10 3 1 3 3 3 4 5 4 5 3 2 2 2 2 6 2 3 4 3 5 7 7
10 12 10 7 5 9 4 1 5 7 4 4 3 4 4 7 6 7 5 6 3 5 4 5 3 2 2 3 3 5 4 3 5 3 4 0 1 10 5 5 5 5 6 7 8
10 9 7 8 8 4 3 5 9 3 2 2 3 4 5 6 5 6 3 4 5 5 4 4 4 3 3 2 4 3 4 4 4 2 4 0 6 5 5 5 6 7 7 8 9
8 4 2 12 5 2 5 6 5 5 4 4 3 6 4 4 3 4 4 2 2 2 4 3 2 2 3 1 3 1 3 4 5 2 2 3 7 10 6 7 5 8 5 8 6
7 2 3 10 3 4 5 5 2 3 4 2 3 1 2 3 3 4 2 2 1 1 2 4 3 2 1 1 2 2 4 3 2 0 4 4 5 5 4 4 4 6 7 7 6
3 3 4 4 3 5 4 3 3 1 1 2 3 4 3 4 3 1 3 1 2 2 3 4 3 1 1 5 7 3 2 2 1 3 3 4 6 8 8 7 8 8 6 7 7
2 3 6 3 4 2 2 3 2 1 3 2 3 3 4 3 2 2 3 4 5 6 4 3 4 3 6 1 4 3 5 5 3 4 3 1 8 4 7 7 7 8 7 9 7
2 2 4 2 4 2 1 3 2 2 1 1 1 1 2 5 3 4 4 2 6 5 5 5 0 2 5 1 2 5 5 5 3 2 8 4 6 1 2 4 5 7 9 9 6
3 3 4 4 1 5 4 2 3 1 3 2 2 2 2 2 2 4 3 2 5 4 4 5 2 4 5 4 3 5 6 10 10 4 4 11 8 13 9 7 8 8 8 7 7
4 0 2 2 4 3 2 3 4 4 0 1 2 3 2 1 0 2 2 1 1 3 3 3 3 5 6 9 8 13 10 10 15 17 9 2 13 20 9 8 8 7 6 6 8
2 3 3 1 2 3 2 4 6 2 5 3 3 3 5 4 5 2 4 2 4 1 4 0 3 2 5 8 9 15 17 19 21 20 25 20 27 23 26 16 11 11 9 8 9
3 2 3 3 2 2 3 5 5 3 2 2 5 5 4 6 6 4 5 3 3 7 6 4 2 2 5 4 8 10 14 23 14 11 23 19 27 14 16 13 7 8 9 13 10
Wind_Direction
29 35 32 45 73 90 128 71 88 83 155 145 142 151 150 142 126 96 54 56 40 23 135 124 109 96 74 67 44 107 68 129 160 156 154 352 123 14 323 100 61 11 114 101 129
29 35 34 39 45 80 88 96 78 47 151 144 145 147 143 128 108 59 27 35 24 122 146 132 95 73 54 47 25 64 82 141 65 122 133 110 102 36 117 92 58 69 69 94 90
35 28 45 39 44 61 84 93 121 56 102 138 141 137 138 130 74 339 15 346 341 109 134 120 111 79 62 50 4 23 103 154 37 65 19 92 80 293 129 76 173 161 118 47 36
49 37 27 38 40 56 81 87 76 49 344 163 138 138 106 47 109 325 343 29 52 130 116 113 53 66 72 83 14 93 53 63 95 3 47 62 51 74 29 75 90 60 35 30 4
46 42 29 35 37 57 92 89 85 84 97 116 133 126 96 51 39 349 27 95 105 120 86 95 71 117 99 103 72 76 120 55 69 60 51 88 66 39 357 344 336 344 49 50 16
35 47 48 38 41 84 100 103 107 107 99 96 116 88 78 76 339 17 71 94 110 102 70 54 131 118 90 72 70 92 86 74 37 26 38 26 22 340 167 342 52 56 59 38 342
42 61 53 62 86 90 90 101 111 119 92 83 93 88 62 50 28 52 77 87 107 107 86 72 115 72 137 94 152 107 78 40 22 354 23 330 273 226 27 4 38 10 331 321 321
55 60 79 78 85 86 87 96 113 126 108 78 77 78 76 17 43 64 78 84 95 99 94 88 85 93 62 125 38 60 57 95 352 1 2 50 267 167 94 24 318 305 303 314 313
62 72 74 79 80 88 91 92 101 113 86 61 50 75 44 12 29 22 47 58 86 82 76 77 68 73 35 83 50 19 134 109 307 56 319 47 273 251 250 347 314 314 311 316 326
65 68 80 84 87 88 87 92 91 77 65 61 39 62 7 330 339 349 47 61 58 33 35 38 52 73 37 54 185 162 118 68 137 339 359 321 271 265 259 299 293 297 303 324 316
62 62 76 80 83 74 102 109 22 25 50 80 15 95 25 333 52 23 5 24 41 48 57 25 65 63 29 12 113 105 92 112 239 305 318 256 278 280 273 273 260 192 215 273 296
73 71 54 65 70 61 77 82 14 90 67 43 57 53 52 5 34 359 18 65 47 71 35 52 70 355 70 65 84 79 106 51 272 328 312 355 287 277 266 239 202 185 238 288 306
52 31 51 71 67 53 58 52 22 14 77 16 12 32 341 29 53 347 20 79 71 63 56 93 111 39 99 43 71 39 103 113 254 325 73 319 280 309 232 185 194 222 234 255 275
10 18 27 2 11 24 54 6 347 28 79 349 347 11 351 350 53 6 15 98 45 104 78 72 360 88 75 71 36 86 16 74 27 37 269 5 282 294 312 273 243 245 245 274 298
357 8 8 27 80 34 326 332 2 80 75 309 316 311 340 75 219 352 23 35 83 60 114 247 42 54 58 5 40 139 69 68 66 78 12 10 12 274 360 319 248 240 248 267 292
350 349 358 4 41 349 330 338 104 41 53 335 324 346 35 20 27 328 36 44 140 67 46 95 31 56 101 61 51 142 78 52 61 68 7 322 103 281 234 241 305 245 243 261 287
335 342 357 10 345 339 333 64 46 72 352 318 353 9 71 12 22 31 29 27 68 80 16 4 358 339 100 85 37 63 53 348 353 8 232 269 265 253 254 246 236 256 271 276 283
321 326 334 359 342 349 4 53 70 216 203 290 7 33 66 9 22 16 48 37 31 66 94 128 329 9 358 93 152 73 136 150 216 273 293 240 237 247 217 252 260 257 264 283 292
333 323 335 344 360 41 67 50 159 195 162 144 59 62 18 15 93 52 47 90 41 64 114 129 8 354 41 56 113 213 68 184 104 112 308 269 280 283 270 277 253 262 268 275 279
335 332 331 351 41 72 68 107 63 159 129 107 113 42 117 345 50 45 10 286 83 45 114 182 72 340 53 42 65 133 172 99 15 138 267 280 275 243 285 247 230 252 253 270 277
339 46 354 357 66 51 91 85 89 344 264 112 155 122 145 144 118 126 181 256 181 95 91 134 102 198 169 197 181 153 177 121 120 183 193 299 265 214 219 219 216 232 245 262 276
49 33 349 22 49 28 79 110 156 57 18 47 105 100 139 161 124 147 180 218 180 160 145 188 129 173 206 273 183 183 194 154 143 226 221 201 271 237 229 240 234 252 272 277 261
58 273 3 40 102 48 139 96 108 127 84 112 124 163 171 176 134 195 206 230 176 154 166 184 272 51 348 193 137 223 195 173 140 151 211 164 259 252 261 254 249 255 274 281 278
73 19 339 51 46 114 125 141 126 169 137 125 117 93 116 146 244 183 232 249 177 194 160 128 161 197 198 193 147 211 195 197 192 209 192 226 280 274 272 261 277 264 259 281 290
30 250 177 355 14 81 78 146 140 164 66 143 124 173 161 163 330 230 162 181 131 232 131 160 246 200 242 238 230 243 233 203 213 215 210 164 228 260 263 252 254 258 266 286 280
93 106 23 49 339 104 4 220 172 190 150 215 180 184 174 186 186 208 157 212 213 77 150 108 275 239 274 252 246 255 242 229 227 229 243 253 274 277 272 276 275 266 269 259 269
84 96 102 342 19 77 227 175 220 163 218 186 180 136 186 232 203 203 188 157 180 164 187 171 210 342 268 334 298 274 239 216 213 213 222 234 242 259 282 275 265 267 248 261 257